Location: Piotrkow Trybunalski
(51.4000°N, 19.6830°E)
Time: 12:55:09
(UTC+02:00)

A-11 Canister half - Pass Details

Date: 04 February 2023
Orbit: 1526 x 1682 km, 47.3° (Epoch: 26 March)

Event Time Altitude Azimuth Distance (km) Brightness Sun altitude
Rises 05:30:56 0° 225° (SW) 4,671 11.2 -16.4°
Reaches altitude 10° 05:34:06 10° 220° (SW) 3,687 10.7 -15.9°
Maximum altitude 05:42:46 47° 151° (SSE) 1,955 9.8 -14.6°
Drops below altitude 10° 05:51:34 10° 82° (E) 3,742 12.3 -13.2°
Sets 05:54:48 0° 77° (ENE) 4,746 12.9 -12.7°
